TimeCEST,TemperatureF,Dew PointF,Humidity,Sea Level PressureIn,VisibilityMPH,Wind Direction,Wind SpeedMPH,Gust SpeedMPH,PrecipitationIn,Events,Conditions,WindDirDegrees,DateUTC
12:45 AM,59.0,53.6,82,30.04,-9999.0,SW,3.5,-,N/A,,Clear,230,2012-10-06 22:45:00
1:45 AM,59.0,53.6,82,30.04,-9999.0,SW,8.1,-,N/A,,Clear,230,2012-10-06 23:45:00
2:00 AM,59,53,75,30.02,22,SW,8.9,,,,Partly Cloudy,230,2012-10-07 00:00:00
2:45 AM,59.0,51.8,77,30.01,-9999.0,West,8.1,-,N/A,,Clear,270,2012-10-07 00:45:00
3:45 AM,59.0,51.8,77,30.01,-9999.0,West,8.1,-,N/A,,Clear,270,2012-10-07 01:45:00
4:45 AM,59.0,51.8,77,30.01,-9999.0,WNW,6.9,-,N/A,,Clear,300,2012-10-07 02:45:00
5:45 AM,57.2,51.8,82,29.98,-9999.0,WNW,6.9,-,N/A,,Clear,300,2012-10-07 03:45:00
6:15 AM,57.2,53.6,88,29.98,-9999.0,WNW,6.9,-,N/A,,Clear,300,2012-10-07 04:15:00
6:45 AM,57.2,51.8,82,29.98,-9999.0,WNW,6.9,-,N/A,,Clear,300,2012-10-07 04:45:00
7:00 AM,-9999,-9999,N/A,-9999,-9999.0,WNW,6.9,-,N/A,,Clear,300,2012-10-07 05:00:00
7:15 AM,59.0,53.6,82,29.98,-9999.0,West,6.9,-,N/A,,Clear,280,2012-10-07 05:15:00
7:45 AM,60.8,53.6,77,29.98,-9999.0,WNW,6.9,-,N/A,,Clear,290,2012-10-07 05:45:00
8:00 AM,60,53,70,29.98,19,WNW,6.7,,,,Partly Cloudy,290,2012-10-07 06:00:00
8:15 AM,60.8,53.6,77,29.98,-9999.0,West,6.9,-,N/A,,Clear,280,2012-10-07 06:15:00
8:45 AM,60.8,53.6,77,29.98,-9999.0,West,6.9,-,N/A,,Clear,280,2012-10-07 06:45:00
9:15 AM,60.8,53.6,77,29.98,-9999.0,WNW,5.8,-,N/A,,Clear,300,2012-10-07 07:15:00
9:45 AM,62.6,53.6,72,29.98,-9999.0,West,5.8,-,N/A,,Clear,270,2012-10-07 07:45:00
10:00 AM,-9999,-9999,N/A,-9999,-9999.0,West,10.4,-,N/A,,Clear,260,2012-10-07 08:00:00
10:15 AM,62.6,53.6,72,29.98,-9999.0,WSW,4.6,-,N/A,,Clear,250,2012-10-07 08:15:00
10:45 AM,64.4,53.6,68,29.95,-9999.0,WSW,4.6,-,N/A,,Clear,250,2012-10-07 08:45:00
11:15 AM,64.4,53.6,68,29.95,-9999.0,WSW,3.5,-,N/A,,Clear,250,2012-10-07 09:15:00
11:45 AM,64.4,53.6,68,29.95,-9999.0,WSW,4.6,-,N/A,,Clear,240,2012-10-07 09:45:00
12:15 PM,66.2,53.6,64,29.92,-9999.0,WSW,6.9,-,N/A,,Clear,240,2012-10-07 10:15:00
12:45 PM,68.0,55.4,64,29.92,-9999.0,WSW,5.8,-,N/A,,Clear,250,2012-10-07 10:45:00
1:00 PM,-9999,-9999,N/A,-9999,-9999.0,West,10.4,-,N/A,,Clear,260,2012-10-07 11:00:00
1:15 PM,69.8,55.4,60,29.92,-9999.0,West,9.2,-,N/A,,Clear,260,2012-10-07 11:15:00
1:45 PM,71.6,55.4,57,29.89,-9999.0,WSW,8.1,-,N/A,,Clear,240,2012-10-07 11:45:00
2:00 PM,71,54,46,29.87,22,WSW,6.7,,,,Partly Cloudy,240,2012-10-07 12:00:00
2:15 PM,71.6,53.6,53,29.86,6.2,SW,9.2,-,N/A,,Mostly Cloudy,230,2012-10-07 12:15:00
2:45 PM,71.6,51.8,50,29.86,6.2,WSW,11.5,-,N/A,,Mostly Cloudy,240,2012-10-07 12:45:00
3:15 PM,71.6,53.6,53,29.86,6.2,WSW,10.4,-,N/A,,Mostly Cloudy,240,2012-10-07 13:15:00
3:45 PM,71.6,53.6,53,29.83,-9999.0,WSW,9.2,-,N/A,,Clear,240,2012-10-07 13:45:00
4:00 PM,-9999,-9999,N/A,-9999,6.2,West,10.4,-,N/A,,Mostly Cloudy,260,2012-10-07 14:00:00
4:15 PM,69.8,53.6,56,29.83,-9999.0,WSW,8.1,-,N/A,,Clear,240,2012-10-07 14:15:00
4:45 PM,69.8,55.4,60,29.83,-9999.0,WSW,8.1,-,N/A,,Clear,240,2012-10-07 14:45:00
5:15 PM,71.6,55.4,57,29.83,-9999.0,WSW,9.2,-,N/A,,Clear,240,2012-10-07 15:15:00
5:45 PM,69.8,55.4,60,29.83,-9999.0,WSW,6.9,-,N/A,,Clear,240,2012-10-07 15:45:00
6:15 PM,68.0,55.4,64,29.83,-9999.0,WSW,4.6,-,N/A,,Clear,240,2012-10-07 16:15:00
6:45 PM,68.0,55.4,64,29.83,-9999.0,WSW,4.6,-,N/A,,Clear,240,2012-10-07 16:45:00
7:10 PM,-9999,-9999,N/A,-9999,-9999.0,North,-9999.0,-,N/A,,Mostly Cloudy,0,2012-10-07 17:10:00
7:15 PM,66.2,57.2,73,29.89,4.3,West,9.2,44.9,N/A,,Mostly Cloudy,260,2012-10-07 17:15:00
7:45 PM,55.4,50.0,82,29.89,6.2,NNW,16.1,-,N/A,Rain-Thunderstorm,Thunderstorms and Rain,340,2012-10-07 17:45:00
7:58 PM,55.4,50.0,82,29.92,6.2,NNW,12.7,24.2,N/A,Rain,Light Rain,330,2012-10-07 17:58:00
8:00 PM,55,50,78,29.90,9,NNW,15.7,,,Rain-Thunderstorm,Thunderstorms and Rain,340,2012-10-07 18:00:00
8:15 PM,55.4,50.0,82,29.95,6.2,West,11.5,23.0,N/A,Rain,Light Rain,280,2012-10-07 18:15:00
8:45 PM,53.6,50.0,88,29.98,6.2,WNW,11.5,-,N/A,Rain,Light Rain,300,2012-10-07 18:45:00
9:15 PM,51.8,48.2,88,29.98,6.2,NNW,15.0,-,N/A,Rain,Light Rain,330,2012-10-07 19:15:00
9:45 PM,51.8,46.4,82,30.01,6.2,NW,18.4,29.9,N/A,Rain,Light Rain,320,2012-10-07 19:45:00
10:45 PM,50.0,42.8,76,30.01,6.2,NW,16.1,28.8,N/A,,Mostly Cloudy,320,2012-10-07 20:45:00
11:13 PM,48.2,41.0,76,30.04,-9999.0,NNW,16.1,43.7,N/A,,Unknown,330,2012-10-07 21:13:00
11:45 PM,48.2,41.0,76,30.04,-9999.0,NNW,25.3,40.3,N/A,,Clear,340,2012-10-07 21:45:00